Weather Roundup
Issued by NWS Springfield, MO

Home | Current Version | Previous Version | Text Only | Print | Product List | Glossary On
Versions: 1 2 3 4 5 6 7 8 9 10 11 12 13 14 15 16 17 18 19 20 21 22 23 24 25 26 27 28 29 30 31 32 33 34 35 36 37 38 39 40 41 42 43 44 45 46 47 48 49 50
000
NZUS99 KSGF 261107
HRRSGF

HOURLY WEATHER
NATIONAL WEATHER SERVICE SPRINGFIELD MO
600 AM CDT SUN APR 26 2015

......SGF CWA......

CITY           SKY/WX    TMP DP  RH WIND       PRES   REMARKS
SPRINGFIELD    CLOUDY    52  49  89 NE13      29.80R
JOPLIN         CLOUDY    53  50  89 NE7       29.81R
WEST PLAINS    CLOUDY    52  48  86 N10       29.79R
ROLLA          CLOUDY    45  44  97 NE9       29.82S
OSAGE BEACH    CLOUDY    46  43  87 NE9       29.84R
BRANSON        CLOUDY    55  50  82 CALM      29.80R

......SURROUNDING SGF CWA......

CITY           SKY/WX    TMP DP  RH WIND       PRES   REMARKS
CHANUTE        CLOUDY    51  49  92 NE13G20   29.82R
PARSONS        CLOUDY    53  50  89 VRB6      29.82R
COFFEYVILLE    CLOUDY    53  49  86 NE13      29.80S
EMPORIA        CLOUDY    48  48 100 NE9       29.84R FOG
GROVE OK       CLOUDY    55  52  88 NE7       29.80R
ROGERS AR      CLOUDY    55  51  86 NE8       29.80R
SILOAM SPRINGS CLOUDY    55  46  71 NE7       29.78R
HARRISON AR    CLOUDY    55  51  86 CALM      29.79R
NEAR YELLVILLE CLOUDY    59  52  77 N3        29.76R

......KANSAS AND MISSOURI......

CITY           SKY/WX    TMP DP  RH WIND       PRES   REMARKS
KANSAS CTY INT CLOUDY    48  45  89 NE9       29.88R
DOWNTOWN KC    CLOUDY    49  45  86 NE9       29.87R
COLUMBIA       CLOUDY    47  43  86 NE12      29.87R
SEDALIA        CLOUDY    48  46  93 NE9       29.87R FOG
ST JOSEPH      CLOUDY    48  43  82 NE10      29.91R HAZE
ST LOUIS       CLOUDY    49  40  71 NE8       29.87R
SPIRIT OF STL  CLOUDY    47  43  86 NE10      29.86R FOG
KIRKSVILLE     MOCLDY    43  40  89 NE9       29.94R
WICHITA        CLOUDY    50  46  86 NE18      29.82R
TOPEKA         CLOUDY    50  46  86 NE12      29.88R
OLATHE         CLOUDY    48  45  89 NE12      29.85R

......TENNESSEE......

CITY           SKY/WX    TMP DP  RH WIND       PRES   REMARKS
MEMPHIS        PTCLDY    60  57  89 N3        29.71R
NASHVILLE      LGT RAIN  58  56  93 N13       29.68R FOG

......ARKANSAS.......

CITY           SKY/WX    TMP DP  RH WIND       PRES   REMARKS
FAYETTEVILLE   CLOUDY    55  52  89 E7        29.78R
FT SMITH       CLEAR     57  53  86 E7        29.72R
LITTLE ROCK    CLEAR     60  52  74 N9        29.73R

......OKLAHOMA.......

CITY           SKY/WX    TMP DP  RH WIND       PRES   REMARKS
TULSA          CLOUDY    58  53  84 NE15      29.74R
PONCA CITY     CLOUDY    54  50  86 NE14G21   29.77R
MCALESTER      PTCLDY    59  55  87 NE5       29.71R
OKLAHOMA CITY  MOCLDY    58  53  84 NE13      29.71R

......IOWA............

CITY           SKY/WX    TMP DP  RH WIND       PRES   REMARKS
DES MOINES     PTCLDY    42  36  79 NE6       29.98R
QUAD CITIES    CLEAR     38  30  73 CALM      29.95R

......ILLINOIS........

CITY           SKY/WX    TMP DP  RH WIND       PRES   REMARKS
QUINCY         CLEAR     39  35  86 NE8       29.92R WCI  33
CHICAGO        CLEAR     36  29  75 N7        29.94R WCI  30



USA.gov is the U.S. government's official web portal to all federal, state and local government web resources and services.